Change the Weather History Date:

Monday, March 18, 2013

  Actual Average Record
Temperature  
Mean Temperature 11 °F 31 °F  
Max Temperature 19 °F 41 °F 79 °F (2012)
Min Temperature 2 °F 20 °F -20 °F (1875)
Degree Days  
Heating Degree Days 54 34  
Month to date heating degree days 758 686  
Since 1 July heating degree days 7067 7117  
Cooling Degree Days 0 0  
Month to date cooling degree days 0 0  
Year to date cooling degree days 0 0  
Moisture  
Dew Point 3 °F    
Average Humidity 66    
Maximum Humidity 83    
Minimum Humidity 49    
Precipitation  
Precipitation T in 0.03 in 0.52 in (1968)
Month to date precipitation 0.61 0.46  
Year to date precipitation 1.20 1.40  
Snow  
Snow T in 0.30 in 5.20 in (1886)
Month to date snowfall 3.6 5.6  
Since 1 July snowfall 32.2 43.1  
Snow Depth 1.00 in    
Sea Level Pressure  
Sea Level Pressure 29.91 in    
Wind  
Wind Speed 18 mph (NW)    
Max Wind Speed 37 mph    
Max Gust Speed 48 mph    
Visibility 10 miles    
Events      
T = Trace of Precipitation, MM = Missing Value Source: NWS Daily Summary

Daily Weather History Graph

Daily Weather History Graph

Search for Another Location

Airport or City:

Trip Planner

Search our weather history database for the weather conditions in past years. The results will help you decide how hot, cold, wet, or windy it might be!

Date:

Astronomy

Mar. 18, 2013 Rise Set
Actual Time 7:49 AM CDT 7:53 PM CDT
Civil Twilight 7:19 AM CDT 8:23 PM CDT
Nautical Twilight 6:43 AM CDT 8:59 PM CDT
Astronomical Twilight 6:07 AM CDT 9:35 PM CDT
Moon 11:29 AM CDT (3/18) 2:14 AM CDT (3/18)
Length of Visible Light 13h 04m
Length of Day
12h 03m
Waxing Crescent, 41% of the Moon is Illuminated
Mar 18
Waxing Crescent
Mar 19
First Quarter
Mar 27
Full
Apr 2
Last Quarter
Apr 10
New

Hourly Weather History & Observations

Time (CDT) Temp. Windchill Dew Point Humidity Pressure Visibility Wind Dir Wind Speed Gust Speed Precip Events Conditions
12:12 AM 19.0 °F 0.6 °F 12.9 °F 77% 29.57 in 7.0 mi WNW 27.6 mph 41.4 mph 0.00 in   Overcast
12:52 AM 17.1 °F -2.0 °F 10.9 °F 77% 29.68 in 9.0 mi WNW 27.6 mph 39.1 mph 0.00 in   Overcast
1:44 AM 14.0 °F -3.9 °F 7.0 °F 74% 29.63 in 9.0 mi WNW 20.7 mph 41.4 mph 0.00 in   Overcast
1:52 AM 12.9 °F -8.6 °F 6.1 °F 74% 29.73 in 8.0 mi NW 31.1 mph 44.9 mph 0.00 in   Overcast
2:52 AM 12.9 °F -7.3 °F 6.1 °F 74% 29.77 in 7.0 mi NW 26.5 mph 40.3 mph 0.00 in   Overcast
3:52 AM 10.9 °F -9.2 °F 3.0 °F 70% 29.80 in 10.0 mi NW 24.2 mph 43.7 mph 0.00 in   Overcast
4:52 AM 10.0 °F -11.1 °F -0.0 °F 64% 29.83 in 10.0 mi NW 26.5 mph 42.6 mph N/A   Scattered Clouds
4:59 AM 10.0 °F -10.8 °F 1.9 °F 70% 29.73 in 7.0 mi NW 25.3 mph 36.8 mph 0.00 in   Mostly Cloudy
5:52 AM 8.1 °F -13.4 °F -0.0 °F 70% 29.85 in 10.0 mi NW 25.3 mph 33.4 mph 0.00 in   Overcast
6:52 AM 8.1 °F -11.7 °F -0.0 °F 70% 29.88 in 8.0 mi NW 20.7 mph 31.1 mph N/A   Overcast
7:18 AM 7.0 °F -14.0 °F -0.9 °F 70% 29.80 in 10.0 mi NW 23.0 mph 34.5 mph N/A   Overcast
7:52 AM 7.0 °F -12.1 °F -0.9 °F 70% 29.91 in 10.0 mi WNW 18.4 mph 29.9 mph N/A   Overcast
8:52 AM 7.0 °F -12.1 °F -0.9 °F 70% 29.93 in 10.0 mi WNW 18.4 mph 31.1 mph N/A   Overcast
9:52 AM 9.0 °F -13.3 °F -0.0 °F 67% 29.95 in 10.0 mi NW 28.8 mph 40.3 mph N/A   Overcast
10:52 AM 10.9 °F -9.6 °F -0.0 °F 61% 29.97 in 10.0 mi NW 25.3 mph 36.8 mph N/A   Scattered Clouds
11:14 AM 10.9 °F -11.6 °F -0.0 °F 61% 29.89 in 10.0 mi NW 32.2 mph 40.3 mph N/A   Mostly Cloudy
11:31 AM 10.9 °F -9.2 °F -0.0 °F 61% 29.89 in 10.0 mi NW 24.2 mph 39.1 mph N/A   Scattered Clouds
11:52 AM 10.9 °F -9.6 °F 1.0 °F 64% 29.99 in 10.0 mi NNW 25.3 mph 35.7 mph N/A   Mostly Cloudy
12:13 PM 12.9 °F -6.5 °F 1.0 °F 59% 29.91 in 10.0 mi NNW 24.2 mph 35.7 mph N/A   Scattered Clouds
12:52 PM 14.0 °F -5.8 °F 1.0 °F 56% 30.01 in 10.0 mi NNW 26.5 mph 40.3 mph N/A   Clear
1:52 PM 15.1 °F -2.5 °F 3.0 °F 59% 30.04 in 10.0 mi NW 20.7 mph 38.0 mph N/A   Clear
2:52 PM 17.1 °F -2.4 °F 3.0 °F 54% 30.03 in 10.0 mi NW 28.8 mph 36.8 mph N/A   Clear
3:52 PM 18.0 °F 0.9 °F 3.0 °F 52% 30.04 in 10.0 mi NW 21.9 mph 29.9 mph N/A   Clear
4:52 PM 18.0 °F 4.2 °F 3.9 °F 54% 30.05 in 10.0 mi NW 13.8 mph 27.6 mph N/A   Clear
5:52 PM 19.0 °F 4.5 °F 3.9 °F 52% 30.06 in 10.0 mi NNW 16.1 mph 25.3 mph N/A   Clear
6:52 PM 17.1 °F 3.0 °F 3.0 °F 54% 30.06 in 10.0 mi NNW 13.8 mph 20.7 mph N/A   Clear
7:52 PM 15.1 °F 2.5 °F 1.9 °F 56% 30.07 in 10.0 mi NNW 10.4 mph - N/A   Clear
8:52 PM 12.9 °F 5.2 °F 1.9 °F 62% 30.09 in 10.0 mi NNW 4.6 mph - N/A   Clear
9:52 PM 10.9 °F 0.2 °F 1.0 °F 64% 30.10 in 10.0 mi NW 6.9 mph - N/A   Clear
10:52 PM 10.0 °F 3.6 °F 1.0 °F 67% 30.12 in 10.0 mi North 3.5 mph - N/A   Clear
11:52 PM 5.0 °F - -0.4 °F 78% 30.01 in 10.0 mi Calm Calm - N/A   Clear